Waarnemingen

Advertentie
Mijn weer
Helgoland, Duitsland (10015): temperatuur & dauwpunt: 18.02.2017 09:00:00 - 24.02.2017 09:00:00 (CET)Helgoland, Duitsland (10015): temperatuur 5cm: 18.02.2017 09:00:00 - 24.02.2017 09:00:00 (CET)Helgoland, Duitsland (10015): windsnelheid & windstoten: 18.02.2017 09:00:00 - 24.02.2017 09:00:00 (CET)Helgoland, Duitsland (10015): windrichting: 18.02.2017 09:00:00 - 24.02.2017 09:00:00 (CET)Helgoland, Duitsland (10015): luchtdruk: 18.02.2017 09:00:00 - 24.02.2017 09:00:00 (CET)Helgoland, Duitsland (10015): zicht: 18.02.2017 09:00:00 - 24.02.2017 09:00:00 (CET)Helgoland, Duitsland (10015): Zonneschijnduur: 18.02.2017 09:00:00 - 24.02.2017 09:00:00 (CET)Helgoland, Duitsland (10015): neerslag: 18.02.2017 09:00:00 - 24.02.2017 09:00:00 (CET)
Datum & Tijd tt [°C] td [°C] tt 5cm [°C] ff [km/u] ff [kn] fx [km/u] fx [kn] dd ppp [hPa] vv [km] sd [min] rr [mm]
24.02.2017 09:00:00 4,6 -1,8 4,3 26 14 49 26 NW 1004,9 11 40 0,0
24.02.2017 08:00:00 3,8 -1,5 2,4 29 15 56 30 NNW 1003,2 34 0 0,0
24.02.2017 07:00:00 3,8 -2,5 2,7 44 24 64 34 NNW 1001,2 33 0 0,0
24.02.2017 06:00:00 3,9 -0,4 3,0 43 23 63 34 NNW 999,0 29 0 0,0
24.02.2017 05:00:00 4,0 1,0 3,5 34 18 51 28 NW 996,6 28 0 0,0
24.02.2017 04:00:00 4,0 1,1 3,5 37 20 50 27 NW 994,7 23 0 0,0
24.02.2017 03:00:00 3,5 0,6 3,0 39 21 69 37 NNW 992,9 26 0 0,0
24.02.2017 02:00:00 3,6 0,4 3,3 50 27 71 38 NNW 990,6 28 0 0,0
24.02.2017 01:00:00 3,3 0,7 3,0 55 30 78 42 NNW 987,5 26 0 0,0
24.02.2017 00:00:00 2,8 1,2 2,4 61 33 79 43 NNW 984,1 26 0 0,1
23.02.2017 23:00:00 5,1 4,4 4,9 35 19 48 26 W 981,0 10 0 0,0
23.02.2017 22:00:00 5,0 4,2 4,4 35 19 48 26 W 980,1 10 0 0,0
23.02.2017 21:00:00 4,9 3,9 4,5 28 15 47 25 W 978,7 10 0 0,1
23.02.2017 20:00:00 5,2 3,8 4,6 37 20 50 27 ZW 978,3 9 0 0,2
23.02.2017 19:00:00 5,2 3,4 4,5 43 23 62 33 WZW 978,9 10 0 0,1
23.02.2017 18:00:00 6,1 4,0 5,1 37 20 65 35 ZW 979,6 9 0 0,3
23.02.2017 17:00:00 6,7 4,1 6,2 40 22 84 45 WZW 980,4 10 0 0,7
23.02.2017 16:00:00 6,9 3,9 6,0 48 26 81 44 ZW 980,7 11 0 1,5
23.02.2017 15:00:00 6,7 6,3 6,6 48 26 57 31 ZZW 981,8 2,8 0 2,2
23.02.2017 14:00:00 5,7 5,4 6,0 33 18 45 25 Z 983,7 4,2 0 0,1
23.02.2017 13:00:00 4,5 4,0 4,6 41 22 53 28 ZZO 986,7 5 0 1,5
23.02.2017 12:00:00 3,5 2,8 3,4 39 21 46 25 ZZO 989,7 4,5 0 2,3
23.02.2017 11:00:00 2,9 1,9 2,7 29 16 38 20 Z 991,8 5 0 2,2
23.02.2017 10:00:00 3,6 2,2 3,2 29 16 35 19 ZZW 994,1 4,8 0 1,7
23.02.2017 09:00:00 4,6 3,9 4,3 25 13 31 17 ZW 995,3 3,5 0 0,9
23.02.2017 08:00:00 4,9 3,9 4,6 24 13 31 17 ZW 996,4 9 0 0,0
23.02.2017 07:00:00 4,9 3,9 4,5 21 12 29 16 ZW 997,0 7 0 0,0
23.02.2017 06:00:00 5,4 3,9 4,8 28 15 39 21 W 997,4 8 0 0,0
23.02.2017 05:00:00 5,3 3,8 4,5 33 18 43 23 W 997,5 8 0 0,0
23.02.2017 04:00:00 5,5 3,8 4,6 36 19 49 26 W 997,7 9 0 0,0
23.02.2017 03:00:00 5,7 3,7 4,8 38 21 50 27 W 997,8 10 0 0,0
23.02.2017 02:00:00 5,8 3,6 4,8 40 22 58 31 W 997,8 10 0 0,0
23.02.2017 01:00:00 5,9 3,6 5,0 45 25 59 32 W 997,7 11 0 0,0
23.02.2017 00:00:00 5,7 3,5 4,8 44 24 62 33 W 997,5 8 0 0,0
22.02.2017 23:00:00 6,0 3,4 5,2 50 27 61 33 W 997,4 8 0 0,0
22.02.2017 22:00:00 5,9 3,2 4,9 47 25 61 33 W 997,2 8 0 0,0
22.02.2017 21:00:00 6,1 3,2 5,1 47 26 61 33 W 997,2 9 0 0,0
22.02.2017 20:00:00 6,1 3,2 5,0 50 27 69 37 W 997,0 10 0 0,0
22.02.2017 19:00:00 6,0 3,2 5,0 49 26 66 35 W 996,8 9 0 0,0
22.02.2017 18:00:00 6,0 3,3 5,1 51 27 64 34 W 996,8 10 15 0,0
22.02.2017 17:00:00 6,2 3,4 5,7 49 27 63 34 W 997,0 6 0 0,0
22.02.2017 16:00:00 6,0 2,9 5,9 48 26 59 32 W 997,2 5 0 0,0
22.02.2017 15:00:00 6,0 2,7 5,9 47 25 61 33 W 997,4 6 0 0,0
22.02.2017 14:00:00 6,1 3,4 6,2 43 23 57 31 W 997,6 6 0 0,0
22.02.2017 13:00:00 6,3 3,2 6,7 42 23 56 31 W 998,0 6 17 0,0
22.02.2017 12:00:00 6,4 3,7 7,3 42 23 53 29 W 998,1 3,6 16 0,0
22.02.2017 11:00:00 6,3 4,3 6,6 39 21 54 29 W 997,7 6 8 0,0
22.02.2017 10:00:00 6,6 3,5 6,4 43 23 60 33 W 997,2 3,9 25 0,0
22.02.2017 09:00:00 6,6 4,7 5,9 41 22 55 30 W 996,3 8 0 0,0
22.02.2017 08:00:00 6,7 5,9 6,3 48 26 63 34 W 996,3 5 0 0,8
22.02.2017 07:00:00 6,7 5,9 6,4 51 28 69 37 W 995,8 4,7 0 0,6
22.02.2017 06:00:00 6,6 5,9 6,3 53 29 69 38 WZW 995,9 3,0 0 1,3
22.02.2017 05:00:00 6,6 5,8 6,2 55 30 77 41 WZW 996,3 3,1 0 1,0
22.02.2017 04:00:00 6,9 6,2 6,6 55 30 71 38 WZW 996,8 3,1 0 0,9
22.02.2017 03:00:00 6,8 6,3 6,6 55 30 72 39 WZW 997,8 3,1 0 1,5
22.02.2017 02:00:00 6,8 6,5 6,7 54 29 66 35 ZW 999,2 1,4 0 1,3
22.02.2017 01:00:00 6,0 5,3 5,7 46 25 55 30 ZZW 1000,7 2,3 0 0,4
22.02.2017 00:00:00 5,6 4,2 5,1 39 21 47 25 ZZW 1003,0 6 0 0,0
21.02.2017 23:00:00 5,3 4,0 4,6 33 18 40 21 ZZW 1005,0 10 0 0,0
21.02.2017 22:00:00 5,1 4,2 4,4 31 17 40 22 ZZW 1006,9 8 0 0,0
21.02.2017 21:00:00 5,0 4,2 4,3 30 16 39 21 ZW 1007,9 10 0 0,0
21.02.2017 20:00:00 4,8 4,2 4,0 25 13 33 18 ZW 1008,8 7 0 0,0
21.02.2017 19:00:00 4,9 4,2 4,1 25 14 32 17 WZW 1009,9 7 0 0,0
21.02.2017 18:00:00 5,2 4,1 4,2 26 14 31 17 WZW 1010,5 9 0 0,0
21.02.2017 17:00:00 5,4 4,2 5,0 28 15 42 23 WZW 1010,5 6 57 0,0
21.02.2017 16:00:00 6,0 4,3 6,7 36 19 44 24 W 1010,9 1,9 60 0,0
21.02.2017 15:00:00 6,0 4,2 7,4 33 18 43 23 W 1010,9 3,2 60 0,0
21.02.2017 14:00:00 6,3 4,4 7,8 32 18 46 25 W 1010,5 11 60 0,0
21.02.2017 13:00:00 6,2 4,4 8,2 32 18 42 23 W 1010,4 3,5 60 0,0
21.02.2017 12:00:00 6,4 4,3 8,0 32 17 46 25 W 1010,3 2,8 60 0,0
21.02.2017 11:00:00 6,4 4,2 7,0 35 19 45 25 W 1009,7 2,1 57 0,0
21.02.2017 10:00:00 6,2 4,2 6,3 37 20 45 25 W 1009,1 18 60 0,0
21.02.2017 09:00:00 5,9 4,3 5,4 36 19 44 24 W 1008,5 8 33 0,0
21.02.2017 08:00:00 5,6 4,2 4,7 29 16 38 20 W 1008,0 9 0 0,0
21.02.2017 07:00:00 5,7 4,6 5,1 28 15 35 19 W 1007,3 10 0 0,0
21.02.2017 06:00:00 5,7 4,7 5,3 31 17 44 24 W 1007,4 9 0 0,3
21.02.2017 05:00:00 5,9 5,0 5,5 36 20 44 24 WNW 1007,0 3,8 0 0,3
21.02.2017 04:00:00 5,8 5,1 5,6 29 16 40 22 W 1006,8 8 0 0,0
21.02.2017 03:00:00 5,8 5,0 5,6 31 17 40 21 W 1007,1 7 0 0,0
21.02.2017 02:00:00 5,9 5,2 5,7 29 16 38 20 W 1007,5 8 0 0,0
21.02.2017 01:00:00 6,3 5,1 6,0 29 16 40 22 W 1007,6 11 0 0,0
21.02.2017 00:00:00 6,1 5,2 5,7 28 15 41 22 W 1007,2 9 0 0,0
20.02.2017 23:00:00 6,2 5,5 5,7 30 16 41 22 W 1007,2 7 0 0,0
20.02.2017 22:00:00 6,4 5,8 6,1 29 16 42 23 W 1007,0 7 0 0,0
20.02.2017 21:00:00 6,5 6,0 6,4 36 19 51 28 W 1006,6 6 0 0,0
20.02.2017 20:00:00 6,8 6,3 6,6 42 23 54 29 W 1006,1 5 0 0,0
20.02.2017 19:00:00 7,1 6,5 6,9 45 24 59 32 W 1005,8 2,3 0 0,5
20.02.2017 18:00:00 6,9 6,3 6,6 45 25 56 31 W 1005,1 3,2 0 0,2
20.02.2017 17:00:00 6,4 6,2 6,3 42 23 55 30 WZW 1005,3 3,3 0 0,1
20.02.2017 16:00:00 5,7 5,7 5,9 45 24 56 30 WZW 1005,7 1,9 0 0,0
20.02.2017 15:00:00 5,6 5,5 5,9 40 22 51 27 WZW 1006,4 0,4 0 0,0
20.02.2017 14:00:00 5,7 5,6 6,2 38 20 54 29 WZW 1006,8 0,5 0 0,0
20.02.2017 13:00:00 5,8 5,5 6,2 43 23 64 35 WZW 1007,3 1,8 0 0,0
20.02.2017 12:00:00 5,8 5,6 6,1 43 23 57 31 WZW 1007,9 1,9 0 0,0
20.02.2017 11:00:00 6,0 5,7 6,1 47 26 59 32 WZW 1008,4 3,7 0 0,0
20.02.2017 10:00:00 5,8 5,5 5,8 44 24 59 32 WZW 1009,3 2,6 0 0,2
20.02.2017 09:00:00 5,8 5,5 5,8 42 23 56 30 WZW 1009,7 1,6 0 0,1
20.02.2017 08:00:00 5,9 5,5 5,7 42 23 56 30 WZW 1010,0 1,8 0 0,3
20.02.2017 07:00:00 5,8 5,2 5,5 42 23 59 32 ZW 1010,6 3,2 0 0,4
20.02.2017 06:00:00 5,7 5,0 5,5 43 23 53 28 ZW 1011,5 3,0 0 0,0
20.02.2017 05:00:00 5,7 4,8 5,5 40 21 48 26 ZW 1012,1 3,9 0 0,0
20.02.2017 04:00:00 5,5 4,8 5,3 32 18 49 27 ZW 1012,9 3,9 0 0,0
20.02.2017 03:00:00 5,2 4,6 5,1 35 19 48 26 WZW 1013,9 3,5 0 0,0
20.02.2017 02:00:00 5,2 4,6 5,1 39 21 49 26 WZW 1014,8 7 0 0,0
20.02.2017 01:00:00 5,0 4,7 4,8 32 18 40 22 WZW 1015,4 8 0 0,0
20.02.2017 00:00:00 4,5 4,1 4,5 29 16 39 21 WZW 1015,9 0,4 0 0,0
19.02.2017 23:00:00 5,2 4,6 5,2 23 12 29 16 WZW 1016,5 14 0 0,0
19.02.2017 22:00:00 5,4 4,8 5,3 19 11 30 16 WZW 1016,2 13 0 0,0
19.02.2017 21:00:00 5,5 4,8 5,4 23 12 37 20 W 1017,0 14 0 0,0
19.02.2017 20:00:00 5,4 5,0 5,4 24 13 31 17 W 1017,1 6 0 0,0
19.02.2017 19:00:00 5,5 5,0 5,5 24 13 31 17 W 1016,3 8 0 0,0
19.02.2017 18:00:00 5,5 4,9 5,4 24 13 31 17 W 1016,0 7 0 0,0
19.02.2017 17:00:00 5,6 4,8 5,8 27 15 34 18 W 1015,9 6 0 0,0
19.02.2017 16:00:00 5,8 4,8 6,5 29 15 34 18 W 1015,7 4,3 28 0,0
19.02.2017 15:00:00 5,8 4,8 6,8 25 14 33 18 W 1015,3 4,3 19 0,0
19.02.2017 14:00:00 5,9 5,0 6,9 27 15 35 19 W 1015,5 4,2 3 0,0
19.02.2017 13:00:00 5,5 4,7 6,4 25 13 34 18 WZW 1015,7 3,5 0 0,0
19.02.2017 12:00:00 5,3 4,7 5,8 27 14 36 19 WZW 1016,1 3,2 0 0,0
19.02.2017 11:00:00 5,2 4,6 5,3 29 16 45 24 WZW 1016,1 3,2 0 0,0
19.02.2017 10:00:00 5,1 4,4 5,1 34 18 47 25 WZW 1015,9 3,0 0 0,0
19.02.2017 09:00:00 5,1 4,5 5,0 37 20 50 27 WZW 1015,7 2,2 0 0,2
19.02.2017 08:00:00 4,9 4,3 4,7 38 20 50 27 WZW 1015,6 1,6 0 1,6
19.02.2017 07:00:00 4,9 4,1 4,6 36 19 53 28 WZW 1015,7 1,5 0 0,4
19.02.2017 06:00:00 5,1 3,9 4,9 40 21 54 29 ZW 1016,2 2,3 0 0,0
19.02.2017 05:00:00 5,0 3,8 4,7 34 19 45 24 ZW 1017,0 2,3 0 0,0
19.02.2017 04:00:00 4,9 4,0 4,5 33 18 44 24 ZW 1017,8 2,3 0 0,0
19.02.2017 03:00:00 4,1 4,1 4,2 33 18 49 26 ZW 1018,4 0,4 0 0,0
19.02.2017 02:00:00 4,2 4,1 4,3 35 19 50 27 WZW 1019,5 0,4 0 0,0
19.02.2017 01:00:00 4,1 4,0 4,2 34 19 48 26 WZW 1020,3 0,4 0 0,0
19.02.2017 00:00:00 3,7 3,7 3,7 32 17 44 24 WZW 1020,9 1,5 0 0,0
18.02.2017 23:00:00 3,6 3,5 3,6 30 16 40 21 ZW 1021,2 0,3 0 0,0
18.02.2017 22:00:00 3,6 3,4 3,6 29 16 40 21 WZW 1021,9 0,7 0 0,0
18.02.2017 21:00:00 4,4 3,7 4,2 24 13 35 19 ZW 1022,4 2,6 0 0,0
18.02.2017 20:00:00 4,7 3,7 4,6 29 15 41 22 ZW 1022,9 4,0 0 0,0
18.02.2017 19:00:00 4,5 3,5 4,4 32 18 43 23 ZW 1023,3 4,5 0 0,0
18.02.2017 18:00:00 4,0 3,5 4,1 32 17 42 23 ZW 1023,8 4,0 0 0,0
18.02.2017 17:00:00 3,6 3,1 3,7 29 16 38 20 ZW 1024,0 4,0 0 0,0
18.02.2017 16:00:00 3,3 2,8 3,7 29 16 37 20 ZW 1024,4 3,0 0 0,0
18.02.2017 15:00:00 3,1 2,6 3,7 28 15 40 21 ZW 1024,8 8 0 0,0
18.02.2017 14:00:00 2,5 2,0 3,2 28 15 39 21 WZW 1025,3 11 0 0,0
18.02.2017 13:00:00 3,3 2,5 4,0 27 14 38 20 WZW 1025,8 16 0 0,0
18.02.2017 12:00:00 4,2 2,5 4,7 21 11 31 17 WZW 1026,1 29 0 0,0
18.02.2017 11:00:00 4,4 2,4 4,7 21 11 29 16 W 1026,0 25 0 0,0
18.02.2017 10:00:00 4,8 2,6 5,0 17 9 25 13 W 1025,9 32 0 0,0
18.02.2017 09:00:00 4,2 2,7 4,3 14 8 26 14 WNW 1025,9 27 0 0,0

tt = temperatuur
td = dauwpunt
tt 5cm = temperatuur 5cm
ff = windsnelheid
fx = windstoten
dd = windrichting
ppp = luchtdruk
vv = zicht
sd = Zonneschijnduur
rr = neerslag

Weerstations in de omgeving